STARLINK-11563 [DTC] (63053 NORAD) Tracking and Keplerian Element Data

This shows tracking and keplerian element data for the satellite.

Feedback or suggestion? Click here.




ElementValue
Catalog63053
NameSTARLINK-11563 [DTC]
Epoch Orbit4849
Epoch Day353.45550125
Epoch Year2025
RAAN138.8326
Inclination42.9991
Eccentricity0.0001448
Argument of Perigee263.2517
Mean Anonmoly96.8186
Mean Motion15.70884628
Decay Rate0.00196373
L11 63053U 25035B 25353.45550125 .00196373 00000+0 14952-2 0 9998
L22 63053 42.9991 138.8326 0001448 263.2517 96.8186 15.70884628 48499



Live tracking and technical data element details for STARLINK-11563 [DTC] (NORAD 63053). STARLINK-11563 [DTC] can be tracked NOW for your location showing map with azimuth and elevation plus other details from your city location.







IsCatalogInMostPopularTable: catalog: 63053, numindb: 2
Update: records affected: 1



GetName: 63053 STARLINK-11563 [DTC]

Hit Count: updated at: Wed, 11 Feb 2026 15:34:30 GMT